Temp
21 21 21 21 21 21 21 22 22 22 22 21 21 21 21 21 21 21 21 21 21 20 20 20 20 20 20 20 20 20 20 20 20 20 19 20 20 20 20 19 19 19
21 21 21 21 21 21 21 22 22 22 22 22 21 21 21 21 21 21 21 21 21 21 21 21 20 20 20 20 20 20 20 20 20 20 20 20 20 20 20 20 19 19
21 21 21 21 21 21 21 21 22 22 22 21 21 21 21 21 21 21 21 21 21 21 21 21 21 20 20 20 20 20 20 20 20 20 20 20 20 20 20 20 20 20
21 21 21 21 21 21 21 21 22 22 21 21 21 21 21 21 21 21 21 21 21 21 21 21 21 21 20 20 20 20 20 20 20 21 21 20 20 20 20 20 20 20
21 21 21 21 21 21 21 21 22 22 22 22 22 21 21 21 21 21 21 21 21 21 21 21 21 21 20 20 20 20 20 20 20 21 21 21 21 21 21 20 20 20
21 21 21 21 21 21 21 21 22 22 22 22 22 22 21 21 21 21 21 21 21 21 21 21 21 21 20 20 20 20 20 20 20 21 21 21 21 21 21 21 21 21
22 22 21 21 21 21 21 21 21 22 22 22 22 22 22 21 21 21 21 21 21 22 22 22 21 21 21 20 20 20 20 20 21 21 21 21 21 21 21 21 21 21
22 22 22 21 21 21 21 21 21 22 22 22 22 22 22 22 22 22 22 22 22 22 22 22 22 22 21 21 21 21 21 21 21 21 21 22 22 22 22 21 21 21
22 22 22 22 21 21 21 21 21 21 21 22 22 22 22 22 22 22 22 22 22 22 22 22 22 22 21 21 21 21 21 21 21 21 21 22 22 22 22 22 22 22
22 22 22 22 22 21 21 21 21 21 21 22 22 22 22 22 22 22 22 22 22 22 22 22 22 22 22 22 22 21 21 21 21 22 22 22 22 22 22 22 22 22
22 22 22 22 22 22 22 22 21 21 21 22 22 22 22 22 22 22 22 22 22 22 22 22 22 22 22 22 22 22 22 22 22 22 22 22 22 22 22 22 22 22
22 22 22 22 22 22 22 22 21 21 22 22 22 22 22 23 23 23 22 22 22 22 23 23 22 22 22 22 22 22 22 22 22 22 22 22 22 22 22 22 22 23
22 23 23 23 22 22 22 22 22 22 22 22 22 22 22 23 23 23 23 23 23 23 23 23 23 22 22 22 22 22 22 22 22 22 23 23 23 23 23 23 23 23
23 23 23 23 23 22 22 22 22 22 22 22 22 22 22 22 23 23 23 23 23 23 23 23 23 23 23 23 23 22 22 23 23 23 23 23 23 23 23 23 23 23
23 23 23 23 23 23 23 22 22 22 22 22 22 22 22 22 23 23 23 23 23 23 23 23 23 23 23 23 23 23 23 23 23 23 23 23 23 23 23 23 23 23
23 23 24 24 23 23 23 23 22 22 22 22 22 22 22 22 23 23 23 23 23 23 23 23 23 23 24 24 23 23 23 23 23 23 23 23 23 23 23 23 24 24
24 24 24 24 23 23 23 23 23 22 22 22 22 22 22 22 22 23 23 23 23 23 23 23 24 24 24 24 24 24 23 23 23 23 23 23 23 24 24 24 24 24
24 24 23 24 23 23 23 23 23 23 22 22 22 22 22 22 22 22 23 23 23 23 23 23 24 24 24 24 24 24 24 24 23 23 23 23 24 24 24 24 24 24
23 23 23 23 24 24 23 23 23 23 22 22 22 22 21 21 21 22 22 23 23 23 23 23 24 24 24 24 24 24 24 24 24 24 24 24 24 24 24 24 24 24
23 23 23 23 24 24 23 23 23 23 23 22 22 22 22 21 21 21 22 22 23 23 23 23 24 24 24 24 24 24 24 24 24 24 24 24 24 24 24 24 24 24
23 23 23 23 24 23 23 23 23 23 23 22 22 22 22 22 22 21 21 22 22 23 23 23 24 24 25 24 24 24 24 24 24 24 24 24 24 24 24 24 24 24
23 23 23 23 23 23 23 23 23 23 23 23 22 22 22 22 22 22 21 22 22 22 22 23 24 24 25 25 25 24 24 24 24 24 24 24 24 24 24 24 24 24
23 23 23 23 23 23 23 23 23 23 23 23 23 22 22 22 22 22 22 22 22 22 22 23 24 24 25 25 24 24 24 24 24 24 24 24 24 24 24 24 24 24
24 24 24 24 24 24 24 23 23 23 23 23 23 22 22 22 22 22 22 22 22 22 22 23 23 24 24 24 24 24 24 24 24 24 24 24 24 24 24 24 24 24
24 24 24 24 24 24 24 24 24 23 23 23 23 23 23 22 22 22 22 22 22 22 22 23 23 23 24 24 24 23 23 23 23 23 23 23 24 24 24 24 24 24
24 24 24 24 24 24 24 24 24 23 23 23 23 23 23 23 22 22 22 22 22 22 22 22 22 22 23 23 23 23 23 22 22 22 22 23 23 23 23 23 23 23
Height
1553 1556 1558 1561 1563 1566 1568 1570 1573 1575 1578 1579 1581 1582 1584 1586 1588 1590 1591 1592 1594 1595 1596 1597 1598 1600 1601 1602 1603 1603 1604 1605 1605 1606 1607 1607 1608 1608 1609 1609 1609 1610
1550 1553 1556 1558 1560 1563 1565 1568 1570 1573 1575 1577 1579 1580 1582 1584 1586 1587 1589 1591 1592 1593 1594 1596 1597 1598 1599 1600 1601 1602 1602 1603 1604 1605 1605 1606 1606 1607 1607 1608 1608 1608
1547 1550 1553 1555 1558 1560 1563 1565 1568 1570 1572 1574 1576 1578 1580 1582 1584 1585 1587 1588 1590 1591 1593 1594 1595 1596 1597 1598 1599 1600 1601 1602 1602 1603 1604 1604 1605 1605 1606 1606 1607 1607
1544 1547 1550 1553 1555 1558 1560 1562 1565 1567 1570 1572 1574 1576 1577 1579 1581 1583 1585 1586 1588 1589 1590 1592 1593 1594 1595 1596 1597 1598 1599 1600 1601 1602 1602 1602 1603 1604 1604 1605 1605 1605
1542 1544 1547 1550 1552 1555 1557 1559 1562 1564 1566 1569 1571 1573 1575 1577 1579 1580 1582 1584 1585 1587 1588 1590 1591 1592 1594 1594 1595 1596 1597 1598 1599 1600 1600 1601 1601 1602 1602 1603 1603 1604
1539 1541 1544 1547 1549 1552 1554 1556 1559 1561 1564 1566 1568 1570 1572 1574 1576 1578 1580 1581 1583 1584 1586 1587 1589 1590 1591 1592 1593 1594 1595 1596 1597 1598 1598 1599 1600 1600 1601 1601 1601 1602
1535 1538 1541 1544 1546 1549 1551 1553 1556 1558 1561 1563 1565 1568 1569 1572 1573 1575 1577 1579 1580 1582 1583 1585 1586 1588 1589 1590 1591 1592 1593 1594 1595 1596 1596 1597 1597 1598 1599 1599 1600 1600
1532 1535 1538 1541 1543 1546 1548 1550 1553 1555 1558 1560 1562 1565 1567 1569 1571 1573 1575 1576 1578 1579 1580 1582 1583 1585 1586 1588 1589 1590 1591 1592 1593 1593 1594 1595 1595 1596 1597 1597 1598 1598
1529 1532 1535 1538 1540 1542 1544 1547 1549 1552 1554 1556 1559 1562 1564 1566 1568 1570 1572 1573 1575 1576 1578 1579 1581 1582 1584 1585 1586 1588 1588 1590 1590 1591 1592 1592 1593 1594 1594 1595 1596 1596
1525 1528 1531 1534 1536 1539 1541 1544 1546 1548 1551 1553 1556 1559 1561 1563 1565 1567 1569 1570 1571 1573 1575 1577 1578 1579 1581 1582 1584 1585 1586 1587 1588 1589 1590 1590 1591 1591 1592 1593 1593 1594
1521 1524 1527 1530 1533 1535 1538 1541 1543 1545 1548 1550 1553 1555 1557 1560 1562 1563 1565 1566 1568 1570 1572 1574 1575 1576 1578 1579 1581 1582 1584 1585 1586 1587 1587 1588 1588 1589 1589 1590 1591 1591
1517 1520 1523 1526 1529 1532 1535 1537 1540 1542 1544 1547 1549 1552 1554 1556 1558 1560 1561 1563 1565 1567 1569 1570 1572 1573 1575 1576 1578 1579 1581 1582 1583 1584 1585 1585 1586 1586 1587 1587 1588 1588
1513 1516 1519 1523 1526 1528 1531 1534 1537 1539 1541 1543 1546 1548 1550 1552 1554 1556 1558 1560 1562 1564 1565 1567 1569 1570 1571 1573 1575 1576 1578 1579 1580 1581 1582 1582 1583 1584 1584 1585 1585 1586
1509 1513 1516 1519 1522 1525 1528 1531 1533 1536 1538 1540 1542 1545 1547 1549 1551 1553 1555 1557 1559 1560 1562 1563 1565 1567 1568 1570 1572 1573 1575 1576 1577 1578 1579 1579 1580 1581 1582 1582 1582 1583
1506 1509 1512 1516 1519 1521 1524 1527 1530 1532 1534 1537 1539 1541 1543 1545 1547 1549 1551 1553 1555 1556 1558 1560 1561 1563 1564 1566 1568 1570 1571 1573 1574 1575 1576 1576 1577 1578 1578 1579 1579 1580
1502 1506 1509 1512 1515 1518 1521 1524 1526 1529 1531 1533 1535 1537 1540 1542 1544 1546 1548 1550 1551 1553 1555 1556 1557 1559 1561 1563 1565 1567 1568 1570 1570 1571 1572 1573 1574 1574 1575 1575 1576 1576
1498 1502 1505 1508 1511 1514 1517 1520 1523 1525 1527 1529 1531 1534 1536 1538 1540 1542 1544 1546 1548 1549 1551 1552 1554 1556 1558 1560 1562 1563 1565 1566 1567 1568 1569 1569 1570 1571 1571 1572 1573 1573
1495 1498 1501 1504 1507 1511 1514 1517 1519 1522 1524 1526 1528 1530 1532 1534 1536 1538 1540 1542 1544 1546 1547 1548 1550 1552 1555 1557 1558 1560 1561 1563 1564 1564 1565 1566 1566 1567 1568 1569 1569 1570
1491 1494 1498 1501 1504 1507 1510 1513 1516 1518 1520 1522 1525 1527 1529 1531 1532 1534 1536 1538 1540 1542 1543 1545 1547 1549 1551 1553 1554 1556 1558 1559 1560 1560 1561 1562 1562 1563 1564 1565 1565 1566
1488 1491 1494 1497 1500 1504 1507 1509 1511 1514 1516 1519 1522 1524 1525 1527 1529 1531 1532 1534 1536 1538 1540 1542 1543 1545 1547 1549 1551 1552 1554 1555 1556 1557 1557 1558 1558 1559 1560 1561 1562 1562
1484 1487 1491 1494 1497 1500 1503 1505 1508 1510 1513 1516 1518 1520 1522 1524 1526 1528 1529 1530 1532 1534 1536 1537 1539 1541 1543 1545 1547 1549 1550 1552 1552 1553 1553 1554 1554 1555 1556 1557 1558 1558
1480 1484 1487 1490 1493 1496 1499 1501 1504 1506 1509 1512 1514 1516 1518 1520 1522 1524 1525 1527 1529 1530 1531 1533 1535 1537 1539 1541 1543 1545 1546 1547 1548 1548 1549 1550 1550 1552 1552 1553 1554 1554
1477 1480 1483 1487 1490 1492 1495 1497 1500 1503 1506 1508 1510 1512 1514 1516 1518 1520 1521 1523 1524 1526 1527 1528 1530 1532 1534 1536 1539 1540 1542 1542 1543 1544 1545 1546 1547 1548 1549 1549 1550 1550
1473 1477 1480 1483 1485 1488 1491 1494 1497 1499 1502 1504 1507 1509 1511 1513 1514 1516 1518 1519 1520 1521 1523 1524 1526 1527 1530 1532 1534 1536 1537 1538 1539 1540 1540 1541 1542 1543 1544 1545 1545 1546
1470 1473 1476 1479 1481 1484 1488 1490 1493 1496 1499 1501 1503 1505 1507 1509 1511 1512 1513 1515 1516 1517 1519 1520 1522 1523 1525 1527 1529 1531 1532 1533 1534 1535 1536 1537 1538 1539 1540 1541 1541 1542
1468 1470 1473 1475 1478 1481 1485 1487 1490 1493 1495 1497 1499 1501 1503 1505 1506 1508 1509 1511 1512 1514 1515 1516 1518 1519 1521 1523 1525 1526 1527 1529 1530 1530 1531 1533 1534 1535 1536 1536 1537 1537
Wind_Speed
32 32 32 31 31 30 30 30 30 29 28 26 25 23 22 19 18 18 18 17 16 15 14 13 13 12 11 11 11 12 12 11 11 10 11 10 10 9 9 9 9 10
32 32 32 31 31 31 30 29 29 28 28 27 26 25 22 19 18 18 19 18 17 16 15 14 13 12 12 12 12 13 13 13 12 12 12 12 11 11 10 9 10 10
33 32 32 32 32 31 30 30 29 28 28 27 27 25 23 21 19 19 19 18 18 17 16 15 14 13 13 13 13 14 14 13 13 13 13 13 13 12 11 11 11 11
35 33 32 31 31 31 30 30 29 28 28 28 27 26 25 23 21 20 20 19 19 18 17 16 16 15 15 14 15 15 15 14 14 14 14 14 13 13 12 12 12 12
35 34 32 31 31 31 30 29 29 28 28 28 27 27 26 24 23 22 21 20 19 18 18 17 17 17 16 16 16 17 17 16 15 15 15 15 14 14 13 13 13 13
36 34 33 32 31 31 30 29 28 28 28 27 27 27 26 26 24 23 22 21 20 19 19 18 18 18 17 17 17 18 19 18 17 16 16 16 15 15 14 14 14 14
37 35 34 33 33 32 30 29 28 28 27 27 27 26 26 26 25 24 23 22 21 21 20 19 19 18 18 18 18 19 20 19 19 18 17 16 16 16 15 15 15 15
37 36 35 34 34 33 32 30 29 28 27 27 27 26 26 25 25 25 24 24 23 23 22 21 20 19 19 19 18 19 19 20 19 18 17 17 16 16 15 15 15 15
37 36 35 35 34 34 33 31 30 29 29 28 28 27 27 26 25 25 25 25 25 25 24 23 22 21 20 20 19 18 18 19 19 19 18 17 17 16 16 16 16 16
38 37 36 35 35 34 33 32 31 30 30 29 28 28 28 27 26 26 26 26 27 27 27 25 24 24 23 22 20 19 18 18 19 19 19 19 18 18 17 17 17 17
40 38 37 36 35 35 34 32 31 31 30 29 28 29 29 28 28 28 28 28 28 28 28 27 27 26 25 24 22 21 20 19 20 20 20 21 20 20 20 19 19 19
41 40 38 37 35 35 34 33 31 31 29 28 28 28 29 29 30 30 30 29 29 28 28 28 28 28 27 26 25 23 22 21 21 22 22 22 22 21 21 20 20 20
42 41 38 37 35 34 34 33 32 31 30 28 27 28 28 29 30 31 31 30 29 28 28 28 27 28 28 27 26 25 24 23 23 23 23 23 23 22 21 21 21 20
42 40 38 37 35 34 33 32 32 31 30 29 28 28 28 28 28 29 29 29 29 29 29 28 28 28 28 28 27 26 26 25 24 24 24 24 24 23 22 22 22 21
41 39 38 36 35 34 33 32 32 31 30 30 29 28 27 27 27 27 27 28 29 29 29 29 28 28 28 28 27 27 26 26 25 25 25 25 25 25 24 24 23 22
40 39 37 36 36 35 33 32 32 32 31 31 30 28 28 27 27 27 27 27 28 29 29 29 29 29 28 28 27 27 26 26 26 26 26 26 26 26 25 25 24 24
39 38 37 36 36 35 34 33 32 32 32 31 31 30 29 29 28 28 28 28 29 29 30 30 30 29 28 28 28 27 27 26 27 27 27 27 27 27 27 26 26 25
39 39 38 37 37 35 34 33 32 32 33 32 32 32 31 30 30 29 28 29 29 30 30 31 31 30 29 28 28 28 28 27 27 28 28 28 28 28 28 27 27 26
39 39 38 37 36 35 34 33 33 34 34 33 32 32 32 32 30 29 29 29 29 30 31 31 31 30 29 29 29 28 28 28 28 29 29 29 29 29 29 28 27 27
39 38 38 37 35 34 34 34 34 34 34 33 32 32 33 32 31 30 30 29 29 30 30 31 31 31 29 29 29 29 28 28 28 29 30 30 30 30 29 29 28 27
39 38 37 36 35 34 34 34 34 34 33 32 32 32 32 31 30 30 30 29 29 29 30 30 31 31 30 29 29 28 28 28 29 30 30 30 31 30 30 29 28 27
38 37 36 35 34 34 34 34 34 34 33 32 32 32 31 30 30 31 30 29 29 28 29 30 30 30 29 29 28 28 27 28 29 30 30 31 31 31 30 29 28 28
36 35 35 34 33 34 34 34 33 32 32 31 32 32 32 31 30 30 30 29 29 29 29 30 30 30 29 28 28 27 27 28 30 30 30 31 31 30 30 29 28 27
34 33 33 32 33 33 32 32 32 31 31 31 31 31 31 31 29 29 29 29 29 29 30 29 29 29 29 28 27 27 27 28 29 29 29 30 30 30 29 28 27 26
31 30 30 30 31 30 30 29 29 29 29 30 30 30 30 30 29 29 29 29 28 28 28 28 28 28 28 27 26 26 27 27 27 27 28 29 29 28 27 26 26 24
29 29 29 29 28 27 26 27 26 27 28 29 29 29 29 29 30 30 29 28 27 27 27 26 26 25 25 24 23 24 25 25 25 26 27 27 26 25 24 23 22 21
Wind_Direction
225 225 225 225 227 229 231 232 233 232 231 230 230 230 231 232 233 232 233 232 230 229 228 227 228 230 235 240 242 244 244 246 249 253 259 264 265 262 261 263 261 259
225 226 226 226 227 228 230 231 232 232 232 231 231 232 232 233 233 232 232 232 231 230 229 230 232 234 238 241 243 246 247 248 249 252 258 263 265 265 266 268 267 266
227 227 227 227 226 227 230 232 233 233 233 233 232 233 233 232 232 231 230 231 230 231 232 234 237 240 241 243 244 246 248 250 251 253 257 262 265 266 268 270 270 271
228 228 227 227 227 227 229 231 233 234 234 233 232 232 232 231 231 231 231 231 231 232 234 236 239 242 244 244 243 244 246 249 250 250 254 259 264 267 270 272 273 274
229 228 227 227 227 228 229 231 233 234 234 233 232 231 231 231 232 232 233 233 233 234 235 237 240 242 245 245 243 243 245 247 248 250 253 257 262 266 269 271 273 275
230 229 228 228 228 229 230 231 233 234 234 234 232 231 231 232 232 233 234 234 234 235 236 237 239 241 244 244 244 243 243 245 247 249 253 256 260 263 266 269 271 273
230 230 229 230 231 231 232 232 233 234 234 234 233 231 231 231 232 232 233 234 235 235 236 237 238 240 243 244 243 243 244 244 246 248 253 257 259 261 263 266 269 271
230 230 230 230 231 232 233 233 234 235 234 234 234 232 231 231 231 232 232 233 235 235 235 236 237 237 240 242 241 242 243 244 245 247 251 254 257 259 262 264 267 270
230 230 230 231 231 232 233 233 235 235 235 235 234 234 233 231 231 232 232 233 235 235 235 236 236 236 238 238 238 239 241 243 244 245 248 251 255 258 260 263 265 268
229 230 230 230 230 231 232 232 234 236 236 234 234 235 234 232 231 232 233 233 234 235 234 235 235 235 235 236 237 237 238 241 242 243 245 249 252 256 259 261 264 267
228 229 229 229 229 230 230 231 233 235 236 234 234 235 234 233 233 233 233 234 235 235 235 235 235 235 235 235 236 237 237 239 241 244 246 249 252 255 257 259 262 266
227 228 228 228 228 228 229 230 231 233 234 232 232 232 233 234 234 234 235 235 235 235 235 235 235 235 235 235 236 238 238 239 242 245 247 250 252 253 255 257 260 263
227 227 227 227 227 227 228 229 229 231 232 231 230 231 231 232 233 234 235 235 236 236 235 235 235 235 236 235 236 238 238 239 241 244 247 249 251 253 255 258 260 262
227 228 228 228 228 228 228 228 229 230 231 231 231 230 231 231 233 235 236 236 237 236 235 235 235 235 236 235 235 236 238 239 240 243 246 248 251 254 257 259 261 263
226 227 228 228 229 229 228 229 229 230 231 232 232 231 231 232 233 235 236 236 236 236 236 237 236 236 235 234 234 234 237 239 241 242 245 248 252 256 258 260 262 264
226 227 228 228 229 229 229 229 230 231 231 232 232 232 232 232 233 235 236 236 236 236 236 237 237 236 234 233 234 235 237 240 242 244 246 249 253 256 258 260 262 265
225 226 227 228 229 230 230 230 230 231 232 232 233 233 233 232 233 234 235 236 237 237 237 238 237 235 234 234 235 236 238 241 243 245 247 250 253 255 257 260 262 264
224 225 226 228 229 229 230 231 231 232 233 233 234 234 234 234 233 233 234 235 238 239 239 239 238 236 234 234 235 236 239 241 244 247 249 250 253 255 257 260 262 264
224 226 227 229 229 230 231 231 232 233 234 234 235 236 236 236 235 235 235 236 238 239 240 240 239 237 235 235 236 237 238 241 244 248 250 252 253 255 258 260 262 265
224 226 228 229 230 230 231 232 233 234 235 236 237 238 239 238 237 237 237 237 238 240 241 242 241 239 236 236 237 238 239 241 244 247 250 253 254 256 258 260 262 265
224 226 227 229 230 230 231 232 233 234 235 236 237 239 240 240 240 240 241 240 239 241 242 242 241 240 238 237 237 238 240 243 245 248 250 252 254 256 259 261 264 266
223 225 226 228 229 230 231 232 233 234 234 235 237 239 241 242 242 243 243 243 242 242 243 243 241 241 240 238 238 239 241 243 245 247 250 252 254 256 259 262 264 266
223 224 225 226 227 229 230 231 232 233 233 234 236 238 240 241 242 243 243 243 243 243 244 243 242 241 240 239 239 239 240 243 245 247 250 252 254 256 258 260 262 264
222 223 224 225 226 228 229 230 232 232 233 235 236 238 240 242 242 243 244 244 244 244 244 243 243 243 241 238 238 238 239 242 244 247 249 251 252 254 256 257 258 259
221 222 223 224 226 227 229 230 232 233 234 235 236 238 239 241 242 244 244 244 244 244 244 244 245 245 243 240 238 238 239 241 243 246 248 249 250 252 253 254 255 255
221 222 222 224 225 226 227 228 229 230 232 234 235 236 237 238 240 241 242 242 243 243 243 243 243 244 243 240 236 236 237 239 242 243 245 247 248 250 251 252 252 251